Wind_Speed
13 13 13 13 13 13 13 12 12 12 12 11 11 10 10 9 8 8 7 7 7 6 6 7 8 8 9 10 11 11 10 10 10 11 11 11 10 10 10 10 10 10 10
11 12 12 12 12 12 12 12 12 12 11 11 11 10 10 9 8 7 7 6 6 6 5 5 6 6 7 7 7 8 8 9 9 9 10 10 10 11 11 11 11 11 11
9 10 10 10 10 11 11 11 11 11 11 11 10 10 9 9 8 7 7 6 6 5 5 4 5 5 5 5 6 6 7 8 9 9 9 10 10 10 11 11 11 11 11
7 8 8 8 8 9 9 9 9 9 9 9 9 9 9 8 8 7 7 6 5 5 4 4 3 3 3 4 5 5 6 7 7 7 8 8 8 8 9 10 10 10 9
6 6 6 6 6 6 7 7 7 8 8 8 8 8 7 7 7 6 6 6 5 5 4 3 3 2 3 3 4 5 5 6 6 6 6 6 6 7 7 8 8 7 7
5 4 4 4 4 4 5 5 5 6 6 6 6 6 6 6 6 6 5 5 5 4 3 3 2 2 2 2 3 4 5 5 6 6 5 5 5 5 6 6 6 6 6
4 4 4 4 3 3 3 3 4 4 4 4 4 4 4 4 4 4 4 4 4 3 3 2 2 1 1 1 2 3 4 4 5 5 5 5 5 5 5 4 4 4 4
5 5 5 5 5 5 5 4 4 4 3 3 3 3 3 3 3 3 3 3 3 2 2 2 1 1 1 1 2 2 3 3 4 4 4 4 4 4 3 2 2 2 3
6 7 7 8 8 8 8 7 7 6 6 5 4 4 4 3 3 3 3 3 3 2 2 2 2 2 2 2 2 2 2 3 3 4 4 3 3 3 2 2 2 3 3
9 9 10 10 11 11 11 11 10 10 9 8 7 7 6 6 5 5 5 4 4 4 3 3 2 3 2 2 2 2 2 3 4 4 3 3 3 3 2 2 2 2 2
12 12 12 13 14 14 14 14 13 13 12 11 10 10 9 8 8 7 7 7 6 6 5 5 4 4 4 3 3 3 3 3 4 4 4 4 3 3 2 2 2 2 2
15 15 16 16 17 17 17 16 16 16 15 15 14 13 12 11 11 10 9 9 8 8 8 7 7 6 5 5 4 4 4 4 5 5 5 4 4 4 3 3 3 3 3
18 19 20 20 20 20 20 20 19 18 18 18 18 17 16 15 14 13 12 11 10 10 10 9 9 8 8 7 6 6 6 6 6 6 6 5 5 5 4 4 3 4 4
22 22 23 24 24 25 25 23 23 22 21 21 20 20 18 17 16 15 14 13 13 12 12 12 11 11 10 9 9 8 8 8 7 7 7 7 6 6 6 5 5 5 5
26 26 27 27 28 29 28 27 26 25 25 24 22 21 21 20 18 18 17 16 15 15 15 14 14 13 13 12 11 11 10 10 9 9 9 9 8 8 7 7 6 6 6
30 31 31 31 31 32 31 30 30 29 28 27 27 26 24 23 22 21 20 19 18 17 17 16 16 16 15 15 14 14 13 13 12 11 11 10 10 10 9 9 8 8 8
34 34 35 35 35 35 34 33 32 33 32 31 30 29 27 27 26 25 23 22 21 20 18 18 18 18 17 17 16 16 15 15 15 14 13 13 12 12 11 11 11 10 10
37 37 37 37 38 38 38 37 35 34 34 33 32 31 30 30 30 29 26 24 23 23 21 20 20 20 19 19 18 18 17 17 17 17 16 15 15 14 14 13 13 12 12
40 40 40 40 39 39 40 40 39 38 36 35 33 33 32 31 31 31 30 28 26 24 24 23 23 22 21 20 20 20 20 19 19 19 19 18 17 16 16 16 16 15 14
41 42 42 42 42 42 42 42 41 41 40 39 37 36 34 33 32 31 30 29 27 26 25 25 25 24 23 23 22 21 21 21 21 21 21 20 19 19 18 18 18 17 17
40 41 42 42 42 43 43 43 42 42 42 41 41 40 39 36 35 34 31 31 31 28 27 26 26 25 24 24 23 23 23 23 23 23 23 22 22 21 21 20 20 20 19
37 37 38 40 40 41 42 43 42 42 42 41 41 41 41 39 38 37 34 33 32 30 29 28 27 26 26 25 25 24 24 24 24 24 24 24 24 24 23 23 23 22 21
34 34 34 35 36 37 39 40 41 41 41 41 41 41 41 40 40 40 37 35 34 32 31 30 29 28 27 27 27 25 25 24 25 25 26 26 26 26 25 25 25 25 24
29 29 30 31 32 33 34 35 36 38 39 40 40 40 40 39 40 39 39 39 38 35 33 32 31 30 30 29 28 27 28 27 26 26 27 27 27 27 27 27 27 26 26
24 24 25 27 28 29 30 31 32 33 34 36 37 38 38 38 39 38 38 37 37 37 36 35 33 32 31 30 29 28 29 30 29 29 29 30 30 29 29 29 28 28 28
20 20 21 21 21 22 24 26 27 29 30 31 33 35 36 37 37 38 38 38 37 37 37 35 34 32 33 32 32 31 30 30 30 32 32 31 31 31 31 31 30 31 30
Wind_Direction
101 99 97 96 96 97 98 99 101 103 105 108 111 113 115 116 118 124 131 139 151 161 177 193 206 217 227 234 237 243 250 252 255 256 257 262 262 263 271 276 282 282 285
106 103 100 100 99 100 100 100 100 101 102 103 106 109 111 112 113 118 123 131 145 159 171 187 201 211 225 234 240 248 253 257 261 264 263 266 268 270 271 273 278 280 277
113 108 105 103 103 103 103 103 102 101 100 100 102 105 107 109 109 110 115 121 129 143 154 169 187 201 217 232 244 253 261 266 270 269 268 270 275 275 272 275 277 275 274
125 119 115 112 110 109 108 107 105 103 102 100 100 100 102 103 105 107 111 113 118 125 136 151 169 191 215 233 245 256 267 271 270 269 274 277 278 278 277 280 280 275 268
143 136 131 127 123 120 117 115 112 110 107 105 102 101 100 100 99 102 107 111 113 119 127 139 157 185 220 241 251 261 269 269 268 269 275 282 284 282 282 288 287 275 264
164 160 156 152 147 141 136 132 128 124 120 116 113 110 107 105 103 102 105 110 115 120 129 137 154 183 222 248 261 267 269 267 264 266 270 282 286 285 287 291 289 275 265
195 193 193 194 193 187 180 171 160 152 144 137 131 127 125 122 118 117 116 116 120 126 137 147 166 206 241 271 279 273 267 264 262 265 268 276 280 287 294 295 285 273 269
223 225 226 227 227 226 224 221 215 208 200 190 180 170 162 155 149 143 139 139 140 140 147 165 198 233 260 278 285 277 267 261 259 263 267 273 276 281 290 292 291 283 275
245 245 242 242 242 241 240 238 237 236 236 233 230 224 218 210 204 196 187 182 181 179 180 196 230 249 257 265 275 279 273 260 252 254 261 262 273 281 276 280 280 283 277
256 257 254 251 250 249 248 246 246 245 246 246 246 246 243 240 236 232 228 225 222 222 223 226 237 251 253 257 263 275 272 255 248 250 254 254 260 274 270 266 273 279 282
261 260 259 257 255 253 253 252 253 251 250 251 252 253 253 250 246 244 242 241 238 238 241 244 248 250 250 250 254 259 260 251 245 245 242 244 250 262 259 256 263 272 269
265 261 260 259 257 255 253 251 252 251 250 252 252 253 254 254 251 248 246 246 245 245 246 250 253 255 253 250 250 249 247 247 244 243 243 241 242 247 249 251 255 262 259
269 264 260 257 258 256 253 251 251 251 250 251 252 252 253 253 252 251 249 248 248 248 249 250 253 257 256 252 248 247 244 245 245 242 244 244 242 243 247 250 251 256 256
269 268 265 261 259 256 254 254 252 251 251 250 250 251 253 253 251 250 251 250 249 248 250 251 251 253 255 254 252 248 244 243 244 243 242 244 243 244 249 251 251 254 254
269 267 266 264 262 259 257 254 254 254 252 250 249 250 250 250 250 249 249 251 252 249 248 251 252 252 252 251 251 250 246 242 243 242 243 244 245 246 247 249 251 252 251
267 267 265 263 263 262 258 257 257 255 253 252 251 251 249 248 248 250 250 251 251 251 250 250 251 253 253 251 250 249 248 245 243 243 242 243 245 246 246 247 248 249 250
267 265 264 262 262 262 261 260 258 257 255 254 252 250 248 248 247 247 249 251 251 252 252 249 251 252 253 253 250 248 247 247 245 244 243 244 245 245 245 245 246 247 250
269 267 265 263 263 262 261 260 259 259 258 257 255 252 250 250 249 246 248 249 251 250 249 249 250 252 253 253 250 248 246 246 246 244 244 244 245 245 245 244 244 246 248
272 270 268 266 264 262 260 259 258 258 259 257 256 256 255 252 250 248 247 247 249 250 248 248 250 250 251 252 251 249 247 247 247 245 244 245 245 245 245 245 245 245 248
274 271 269 267 264 261 260 259 258 257 257 257 257 255 253 253 251 250 249 248 249 250 250 249 251 252 251 251 252 251 249 248 247 246 246 246 247 247 247 246 247 247 247
277 274 270 268 266 264 261 260 258 257 257 257 256 255 253 253 252 252 250 250 249 249 251 249 250 251 251 250 250 250 250 249 247 246 247 248 249 249 249 248 247 247 247
281 277 273 270 268 266 263 262 261 260 258 257 256 255 253 254 253 252 251 251 251 251 251 250 248 250 251 249 248 249 248 247 248 248 246 248 250 251 251 250 247 247 248
283 280 276 273 270 267 265 263 260 258 257 256 256 255 254 255 255 252 252 253 252 253 253 251 247 250 251 250 249 248 247 246 250 249 248 250 251 251 252 251 249 247 248
288 283 277 274 272 269 266 264 260 257 257 257 256 255 254 254 253 251 251 252 253 252 251 251 250 253 253 250 248 248 247 246 248 249 249 251 251 252 252 252 249 249 249
297 291 283 278 275 272 269 264 261 258 256 254 254 253 252 252 251 250 250 250 251 252 251 251 252 253 250 249 247 247 248 247 248 249 250 251 252 252 252 252 251 251 251
310 301 293 286 282 278 272 266 262 259 255 253 252 251 250 250 249 249 250 250 249 249 249 248 248 248 247 248 248 248 248 247 249 249 249 249 250 252 253 252 252 251 251
Height
5921 5920 5920 5920 5919 5919 5919 5919 5919 5918 5918 5917 5917 5917 5916 5916 5916 5916 5916 5916 5916 5916 5917 5917 5917 5918 5919 5919 5919 5920 5920 5921 5921 5921 5921 5921 5921 5921 5921 5921 5920 5920 5919
5922 5921 5921 5921 5921 5920 5920 5920 5920 5919 5919 5918 5918 5917 5917 5917 5917 5916 5916 5916 5916 5917 5917 5917 5917 5917 5918 5918 5919 5919 5919 5919 5919 5919 5919 5919 5919 5919 5919 5919 5919 5918 5918
5923 5922 5922 5922 5922 5922 5921 5921 5921 5920 5919 5919 5918 5918 5918 5917 5917 5917 5917 5916 5916 5917 5917 5917 5917 5917 5917 5918 5918 5918 5918 5918 5918 5918 5918 5918 5917 5917 5917 5917 5917 5916 5916
5924 5923 5923 5923 5923 5922 5922 5922 5921 5921 5920 5920 5919 5919 5918 5918 5917 5917 5917 5917 5917 5917 5917 5917 5917 5917 5917 5917 5917 5917 5917 5917 5917 5917 5917 5916 5916 5916 5916 5915 5915 5915 5915
5924 5924 5923 5923 5923 5923 5923 5922 5922 5921 5921 5920 5920 5919 5918 5918 5918 5917 5917 5917 5917 5917 5917 5917 5916 5916 5916 5916 5916 5916 5916 5916 5915 5915 5915 5915 5915 5915 5914 5914 5914 5913 5913
5924 5923 5923 5923 5923 5923 5922 5922 5922 5921 5921 5920 5920 5919 5919 5918 5918 5918 5917 5917 5917 5917 5917 5916 5916 5916 5916 5916 5915 5915 5915 5915 5915 5915 5914 5914 5914 5914 5914 5913 5913 5912 5913
5923 5923 5923 5923 5922 5922 5922 5921 5921 5921 5920 5920 5919 5919 5919 5918 5918 5917 5917 5917 5917 5916 5916 5916 5916 5915 5915 5915 5915 5914 5914 5914 5914 5914 5914 5914 5913 5913 5913 5912 5912 5912 5912
5923 5922 5922 5922 5921 5921 5921 5921 5920 5920 5919 5919 5919 5918 5918 5918 5917 5917 5917 5916 5916 5916 5916 5915 5915 5915 5915 5914 5914 5914 5914 5913 5913 5913 5913 5913 5913 5913 5912 5912 5912 5911 5911
5922 5921 5920 5920 5920 5920 5919 5919 5919 5919 5918 5918 5917 5917 5917 5917 5916 5916 5916 5915 5915 5915 5915 5914 5914 5914 5914 5914 5914 5913 5913 5912 5912 5912 5912 5912 5912 5912 5912 5911 5911 5911 5911
5920 5919 5919 5918 5918 5918 5917 5917 5917 5917 5917 5916 5916 5915 5915 5915 5915 5914 5914 5914 5914 5914 5914 5914 5913 5913 5913 5913 5913 5913 5912 5912 5912 5911 5911 5911 5911 5911 5911 5911 5911 5911 5910
5918 5917 5917 5916 5915 5915 5915 5914 5914 5914 5914 5914 5914 5913 5913 5913 5913 5913 5913 5913 5913 5913 5913 5912 5912 5912 5912 5912 5912 5912 5911 5911 5911 5911 5911 5911 5911 5911 5911 5911 5911 5910 5910
5915 5915 5914 5913 5912 5912 5911 5911 5911 5911 5911 5911 5911 5910 5910 5910 5910 5910 5910 5910 5910 5911 5911 5911 5911 5910 5910 5911 5911 5910 5910 5910 5910 5910 5910 5910 5910 5910 5910 5910 5910 5910 5910
5911 5911 5910 5909 5908 5907 5907 5907 5906 5906 5906 5907 5907 5907 5907 5907 5907 5907 5907 5908 5908 5908 5908 5908 5908 5908 5909 5909 5909 5909 5909 5909 5909 5909 5909 5909 5909 5909 5909 5909 5909 5909 5909
5907 5906 5905 5904 5903 5902 5902 5902 5901 5902 5902 5902 5902 5903 5903 5903 5903 5904 5904 5904 5904 5905 5905 5905 5906 5906 5906 5906 5907 5907 5907 5907 5908 5908 5908 5908 5908 5908 5908 5908 5908 5908 5909
5901 5900 5899 5898 5898 5896 5896 5896 5896 5896 5897 5897 5897 5898 5898 5899 5899 5899 5900 5900 5900 5901 5901 5902 5902 5903 5903 5903 5904 5905 5905 5905 5906 5906 5906 5906 5906 5907 5907 5907 5907 5907 5908
5894 5893 5892 5892 5891 5890 5889 5889 5890 5890 5890 5891 5891 5892 5893 5893 5894 5894 5895 5896 5896 5897 5897 5898 5898 5899 5899 5900 5900 5901 5902 5903 5903 5903 5904 5904 5904 5905 5905 5905 5905 5905 5906
5887 5886 5885 5884 5883 5882 5882 5882 5882 5883 5883 5884 5884 5885 5886 5887 5888 5889 5889 5890 5891 5892 5892 5893 5894 5895 5895 5896 5897 5897 5898 5899 5900 5900 5901 5901 5902 5902 5903 5903 5903 5903 5904
5878 5877 5876 5875 5874 5874 5874 5874 5874 5875 5875 5876 5877 5878 5879 5880 5881 5882 5884 5885 5886 5887 5888 5889 5889 5890 5891 5892 5892 5893 5894 5895 5896 5897 5897 5898 5899 5899 5900 5900 5901 5901 5901
5869 5868 5867 5866 5865 5865 5865 5865 5865 5866 5867 5868 5870 5871 5872 5873 5875 5876 5877 5878 5880 5881 5882 5883 5884 5885 5886 5887 5888 5889 5890 5891 5892 5893 5893 5894 5895 5896 5896 5897 5898 5898 5899
5858 5857 5856 5856 5855 5855 5855 5856 5856 5857 5858 5860 5861 5863 5865 5866 5868 5869 5870 5871 5873 5874 5875 5877 5878 5879 5881 5882 5883 5884 5885 5886 5887 5888 5889 5890 5891 5892 5892 5893 5894 5895 5895
5847 5846 5845 5845 5844 5844 5845 5845 5846 5847 5848 5850 5852 5854 5856 5858 5860 5861 5863 5864 5866 5867 5869 5870 5872 5873 5874 5876 5877 5878 5879 5881 5882 5883 5884 5885 5886 5887 5888 5889 5890 5891 5891
5837 5835 5834 5833 5833 5833 5834 5835 5836 5837 5839 5840 5842 5844 5847 5849 5851 5853 5855 5857 5858 5860 5861 5863 5865 5866 5868 5870 5871 5872 5873 5876 5876 5877 5879 5880 5881 5882 5883 5884 5885 5886 5887
5828 5826 5824 5823 5822 5822 5823 5824 5825 5827 5828 5830 5832 5835 5837 5839 5842 5844 5846 5849 5851 5852 5854 5855 5857 5859 5861 5863 5864 5866 5867 5869 5870 5871 5873 5874 5875 5876 5877 5878 5879 5881 5882
5820 5817 5815 5813 5813 5812 5813 5813 5815 5816 5818 5820 5822 5824 5827 5830 5832 5835 5837 5840 5842 5844 5846 5848 5849 5851 5853 5855 5857 5859 5861 5862 5863 5865 5867 5868 5869 5870 5871 5872 5873 5875 5876
5812 5809 5806 5805 5804 5803 5803 5803 5804 5806 5808 5810 5812 5815 5817 5820 5823 5825 5828 5830 5833 5835 5837 5839 5842 5844 5846 5847 5849 5851 5853 5855 5856 5858 5860 5861 5862 5863 5864 5866 5867 5868 5870
5806 5802 5800 5798 5797 5795 5795 5795 5796 5798 5799 5801 5803 5805 5808 5810 5813 5816 5818 5821 5824 5826 5828 5830 5833 5835 5837 5839 5841 5843 5845 5847 5849 5850 5852 5853 5855 5856 5857 5859 5860 5862 5863